Temperature
21 20 18 16 16 15 15 15 15 15 15 15 14 14 14 14 14 14 14 13 13 13 13 13 13 13 14 14 14 13 13 13 13 13 14 15 16 16 16 15 13 12 12
21 20 18 16 15 15 15 15 15 15 15 14 14 14 14 14 14 13 13 13 13 13 13 13 13 13 13 13 13 13 13 13 13 14 14 14 15 15 15 14 13 12 13
21 20 18 16 15 15 15 15 15 15 14 14 13 13 13 13 13 13 13 13 13 13 13 13 13 13 13 13 13 13 13 13 14 14 14 13 13 14 14 14 13 13 13
20 19 17 16 15 15 15 15 15 14 14 14 13 13 13 13 13 13 13 13 13 13 13 13 13 13 13 13 13 13 13 14 14 14 13 12 12 13 14 13 13 12 13
21 19 18 16 15 15 15 15 14 14 14 14 13 13 13 13 13 13 13 13 13 13 13 13 13 13 13 13 13 13 13 13 14 13 12 12 12 13 14 13 12 12 12
20 18 20 17 15 15 15 14 14 14 14 14 13 13 13 13 13 13 13 13 13 13 13 13 13 13 13 13 13 14 14 14 13 12 13 13 13 13 14 14 13 13 12
18 17 19 18 16 15 14 14 14 14 15 14 13 13 13 13 13 13 13 13 13 13 13 14 14 13 13 14 14 14 14 14 14 13 13 13 13 14 14 14 14 14 14
18 17 18 17 16 15 15 14 14 15 15 15 14 13 13 13 13 14 13 13 13 14 14 14 13 13 13 13 13 13 13 13 13 12 12 12 13 13 14 13 13 13 13
17 17 17 17 16 15 15 14 14 15 15 15 14 13 13 14 13 13 14 13 13 14 14 13 13 13 13 13 13 13 13 13 13 12 12 12 13 13 13 13 13 13 13
18 16 16 17 15 15 15 14 14 15 15 15 14 14 14 14 14 13 13 14 14 14 14 13 13 13 13 13 13 13 13 13 12 12 12 12 13 13 13 13 13 13 13
18 17 16 16 16 15 15 14 14 14 14 14 15 15 14 14 14 14 14 14 14 14 13 13 13 13 13 13 13 13 13 12 12 13 13 13 13 13 13 13 13 13 13
18 18 17 16 16 15 15 14 14 14 14 14 14 15 14 14 14 14 14 14 14 13 13 13 13 13 13 12 12 13 12 12 12 12 12 13 13 13 12 12 12 12 12
18 18 18 17 16 15 15 14 14 14 14 14 14 14 15 15 14 14 13 13 13 13 13 12 12 12 12 13 13 12 13 12 12 11 11 12 12 11 10 10 11 11 11
17 18 18 18 17 16 15 14 14 14 14 14 14 14 14 14 14 13 13 13 12 12 12 12 12 12 12 12 12 12 12 12 11 11 10 11 11 10 10 10 10 10 10
18 18 18 18 18 17 16 15 14 14 14 14 14 14 14 13 13 13 12 12 12 12 11 12 12 12 12 12 11 11 11 10 10 9 9 10 10 9 10 10 10 10 10
19 19 19 19 18 18 17 16 15 14 14 13 14 14 13 13 12 12 12 12 11 11 11 12 12 12 11 11 11 10 10 9 9 9 8 9 9 9 9 9 9 10 10
19 18 19 19 19 18 17 16 15 15 14 13 13 13 13 12 12 12 12 12 11 11 12 12 12 11 11 10 9 9 9 9 9 8 8 8 8 8 9 9 9 9 9
18 19 18 19 19 18 17 16 15 15 14 13 13 13 13 12 12 12 12 11 11 12 12 11 11 11 10 10 9 9 9 9 8 7 7 8 8 8 8 9 9 9 9
18 18 19 19 19 19 17 15 15 14 14 13 13 13 13 12 12 12 11 11 11 11 11 11 10 10 10 10 10 10 9 8 7 7 7 7 8 8 8 8 8 8 8
18 18 19 19 19 18 16 15 15 14 14 13 13 13 12 12 12 11 11 11 11 11 10 10 10 9 9 9 9 9 8 8 7 6 6 7 7 7 7 7 7 7 7
18 18 19 19 19 18 17 15 15 14 14 13 13 12 12 12 12 11 11 11 11 10 10 9 9 8 8 8 9 8 7 8 6 6 7 7 6 7 6 6 6 6 6
17 18 18 19 19 18 17 16 16 15 14 13 13 12 12 11 11 11 11 11 10 10 9 9 8 8 7 7 7 6 6 7 6 7 6 6 6 6 6 6 6 6 5
16 17 18 19 18 17 16 14 15 15 14 13 12 12 11 10 11 11 11 10 10 10 9 8 8 7 6 6 5 5 5 6 5 5 5 5 5 6 6 6 5 5 5
16 17 17 18 18 17 16 15 15 15 13 12 12 11 10 10 10 10 10 10 10 9 8 8 7 6 6 5 4 4 4 3 2 3 3 3 2 3 3 3 3 4 4
15 16 17 17 17 17 16 14 14 14 14 13 11 10 10 10 10 10 10 10 9 8 8 7 6 6 5 4 4 4 3 2 1 1 2 2 1 0 -0 -0 1 1 1
14 15 16 16 16 16 14 13 13 14 14 13 11 10 10 10 10 10 9 9 8 8 7 6 6 5 4 4 3 3 2 1 1 0 0 0 -0 -0 -1 -1 -1 -0 -1
Wind_Speed
10 17 18 18 17 15 14 13 12 10 9 8 8 8 9 10 11 10 9 9 9 9 9 7 8 10 12 11 10 8 7 6 6 7 7 7 6 5 4 2 4 6 2
13 17 19 18 17 15 14 12 11 10 9 8 10 10 9 8 8 8 8 8 8 9 9 7 8 8 9 10 9 8 6 6 6 5 4 2 3 5 5 4 5 2 1
14 17 19 18 18 16 15 13 11 10 9 9 11 9 8 6 6 7 7 7 7 8 8 8 9 9 9 8 8 7 6 6 5 4 4 3 2 4 6 5 4 3 3
15 16 17 19 18 17 15 13 11 10 9 9 9 7 5 4 5 7 7 6 6 7 8 8 8 9 8 8 7 6 5 5 4 3 4 4 4 5 8 9 6 6 5
15 16 17 21 19 17 15 13 11 10 9 8 8 5 3 2 4 6 7 7 7 7 7 7 6 7 7 8 8 7 7 4 0 5 5 5 5 6 9 10 10 9 7
15 16 19 22 20 18 16 14 12 10 9 8 6 4 3 2 1 3 4 9 8 6 5 4 4 5 6 6 6 7 7 7 5 5 5 5 5 6 9 10 11 11 11
13 14 18 21 19 19 17 16 13 11 9 7 6 4 4 5 6 3 6 9 8 5 3 3 5 6 6 6 6 7 6 5 6 6 6 6 6 8 10 11 11 12 12
12 13 16 19 17 18 18 16 14 12 10 8 6 4 5 8 11 5 9 9 6 3 3 5 7 8 7 7 8 8 6 7 7 6 7 7 6 9 10 11 12 14 14
11 11 12 15 14 16 18 17 15 12 10 8 6 5 8 10 11 12 8 6 4 4 5 6 8 7 7 8 8 7 5 5 7 6 7 7 7 10 11 12 13 14 15
11 11 11 12 12 14 15 16 15 12 11 9 7 8 8 7 8 8 7 7 6 5 7 9 10 10 10 10 9 8 5 5 6 5 5 6 9 10 11 11 12 13 14
11 11 10 11 11 12 12 14 14 12 12 12 9 8 4 2 3 5 7 6 6 7 9 10 10 9 6 8 8 6 4 6 6 6 5 9 11 11 11 11 11 11 12
14 13 11 11 11 11 11 12 10 10 11 9 7 6 4 4 4 4 6 6 7 9 10 9 7 6 5 5 5 4 5 7 6 6 6 11 10 9 9 8 9 10 11
13 14 13 12 11 11 10 10 9 9 9 9 8 8 6 6 5 4 4 4 4 5 5 5 3 6 6 6 6 6 6 7 6 5 6 11 10 9 9 12 14 14 15
12 14 15 15 13 12 11 10 10 9 9 8 9 9 8 5 5 5 4 4 4 4 4 4 4 6 6 6 6 6 6 6 5 4 6 12 13 13 13 14 15 16 16
14 15 16 16 16 14 12 10 10 10 10 11 10 10 9 6 6 6 5 5 5 5 4 4 5 6 6 6 6 6 6 5 4 3 3 12 14 15 14 15 15 16 16
15 16 16 18 17 16 13 12 11 10 10 11 10 11 10 7 7 7 6 6 6 6 5 5 5 5 5 5 6 5 5 4 3 2 2 6 13 15 15 15 15 15 16
14 14 15 17 18 17 16 15 11 11 11 10 10 12 10 10 10 9 6 6 6 6 5 5 5 5 5 6 6 5 4 2 1 2 3 4 6 11 14 15 16 16 16
11 11 12 13 17 18 16 15 11 12 12 10 10 10 12 13 13 10 7 6 7 6 5 5 5 5 6 7 6 5 4 2 2 3 4 5 6 6 8 12 14 15 16
11 11 11 14 16 17 16 13 13 12 10 9 9 10 13 15 14 11 8 7 8 6 5 4 5 5 7 8 7 5 3 3 3 2 4 5 5 6 6 8 10 12 15
11 10 11 13 15 16 13 11 10 10 9 8 9 11 14 14 14 13 9 9 7 6 5 4 5 5 6 7 7 4 2 2 3 1 4 3 4 6 7 9 10 11 12
11 10 10 13 16 15 13 13 11 9 9 9 8 12 13 14 14 12 9 8 7 6 6 5 4 5 6 7 5 3 1 1 2 1 3 3 3 5 8 11 12 12 11
13 11 11 14 17 18 15 13 10 11 9 9 9 10 12 12 13 11 10 8 7 6 6 5 5 4 5 6 5 5 4 1 2 3 2 4 4 7 9 13 13 13 13
14 13 12 16 17 18 16 11 12 10 8 7 9 8 7 10 12 13 12 9 8 7 5 5 5 6 5 5 5 4 3 3 6 5 6 5 6 8 9 11 14 14 13
16 13 14 16 19 19 18 16 19 14 14 11 10 9 9 10 12 13 12 10 8 7 6 5 5 4 4 4 3 3 2 3 4 6 6 6 8 10 11 10 13 13 13
17 14 16 17 19 19 19 19 18 15 14 13 13 14 11 10 11 12 11 10 8 6 6 5 4 3 2 2 3 3 3 3 5 5 8 10 9 9 8 11 10 10 11
15 15 17 19 19 20 20 19 18 19 19 19 17 15 11 9 9 11 10 9 8 6 6 5 3 2 0 1 2 3 3 4 5 6 8 12 12 10 12 9 8 9 11
Wind_Direction
157 158 155 157 152 149 140 128 118 113 111 115 123 123 124 123 117 110 101 87 68 52 40 37 38 41 47 55 73 86 83 66 42 37 31 26 20 9 350 304 231 242 223
153 158 157 161 156 151 141 130 123 119 113 114 119 109 101 105 107 111 101 90 71 50 44 47 44 41 43 42 45 48 47 42 30 37 14 5 49 6 354 340 303 303 175
155 159 161 164 158 154 146 137 133 127 117 114 116 109 104 109 110 117 110 92 73 55 52 56 50 47 45 39 33 30 25 16 27 42 291 322 33 15 350 330 291 237 248
160 162 162 161 158 155 149 143 143 137 125 121 122 122 118 118 133 138 130 110 86 69 62 62 54 47 41 32 24 20 19 20 42 312 313 349 337 9 334 325 307 261 261
162 165 153 155 158 157 154 148 148 143 137 134 137 140 138 155 154 154 146 123 106 90 76 64 52 39 30 20 11 6 8 21 243 275 353 345 327 354 325 314 311 304 277
167 168 152 155 160 160 159 154 153 150 151 152 148 131 96 42 247 204 167 135 125 111 90 62 29 18 15 9 7 6 8 15 295 335 336 328 321 344 319 310 302 299 293
169 172 155 159 163 163 163 159 157 155 159 164 167 143 105 45 15 249 177 146 137 126 91 26 4 1 6 6 9 14 13 344 327 336 329 323 329 332 314 304 296 289 283
172 172 158 160 164 167 166 159 157 157 161 165 171 152 101 64 39 64 154 147 140 113 38 12 354 352 1 18 28 27 17 341 324 327 326 318 345 323 312 304 296 287 279
174 174 165 161 167 172 166 158 157 161 162 162 164 133 94 77 59 58 97 118 110 62 25 4 1 7 33 42 40 36 21 339 319 333 324 320 341 315 309 308 304 296 291
176 181 174 166 171 175 170 158 157 162 161 153 132 109 96 96 91 76 78 70 59 41 24 29 43 53 57 54 46 36 9 306 344 335 329 347 334 314 309 311 317 319 317
179 184 181 173 174 177 170 160 160 163 157 147 134 120 142 171 140 120 77 62 53 50 54 59 59 57 60 68 51 20 328 341 337 336 339 348 329 321 316 315 317 322 327
184 183 185 184 180 181 171 167 172 171 167 174 162 158 163 151 138 119 105 81 74 84 84 71 65 54 14 15 18 338 342 332 324 331 350 351 337 329 326 337 2 14 10
193 185 189 188 185 187 180 176 177 177 174 176 170 162 152 148 144 138 128 125 108 93 81 73 46 31 20 12 346 343 345 332 324 329 7 12 11 14 30 43 39 29 28
208 197 193 189 186 191 192 187 187 182 179 178 177 172 161 149 141 126 107 88 81 74 60 40 22 22 12 358 345 338 337 334 330 338 31 30 39 43 43 37 32 30 25
213 208 200 194 192 189 191 192 193 189 183 181 175 176 168 156 140 123 106 94 79 63 50 32 16 13 1 349 345 338 339 336 335 349 63 50 45 44 42 35 30 26 20
217 212 203 198 195 191 189 190 192 190 186 183 176 174 170 154 135 121 109 94 80 64 49 36 23 4 351 343 338 339 336 335 350 20 56 71 57 47 44 37 29 22 15
227 222 209 202 196 194 193 191 188 185 183 183 177 172 165 147 134 123 115 107 95 82 62 38 22 358 353 341 336 342 338 324 47 68 60 49 58 54 45 34 26 19 10
238 228 218 205 200 197 195 190 182 181 179 180 173 162 151 139 131 123 117 106 99 85 66 49 18 3 0 349 341 341 326 241 139 85 67 47 39 27 38 30 18 10 1
243 227 214 209 200 195 193 185 178 174 169 165 156 145 139 135 134 128 117 111 104 91 75 61 38 16 2 351 342 340 337 198 149 110 30 25 34 18 6 8 358 355 349
249 234 216 203 191 185 182 173 160 151 150 144 138 137 138 136 133 124 117 115 112 102 88 71 57 34 9 346 334 340 24 172 204 273 337 4 25 10 0 349 339 338 336
246 234 213 189 179 176 174 168 158 155 146 131 124 129 131 131 130 124 120 117 110 99 88 64 49 36 22 356 340 336 301 174 209 49 349 355 5 3 344 342 336 332 325
240 227 203 184 179 179 181 177 168 146 132 121 117 112 117 127 129 125 124 121 115 108 92 70 50 38 33 18 357 339 336 297 169 336 339 334 333 344 338 336 330 324 322
233 216 196 182 178 179 176 158 142 129 126 120 117 111 118 131 127 125 124 122 118 111 99 76 55 39 24 26 21 1 336 324 319 290 314 312 323 331 327 325 319 317 317
225 209 193 181 177 177 169 165 164 160 155 153 143 132 132 131 126 125 126 125 119 113 110 91 69 52 19 7 14 7 330 306 295 303 294 296 309 308 307 312 313 309 311
217 196 185 180 177 173 171 172 171 160 146 139 133 134 133 130 127 129 130 125 119 116 114 105 93 70 35 352 337 323 305 291 272 289 300 308 307 298 298 304 301 302 310
205 185 179 178 175 172 172 171 167 155 146 144 145 145 142 138 133 132 129 125 124 126 123 116 112 112 63 280 285 295 303 297 297 290 293 304 307 306 304 296 290 300 310
Height
1506 1508 1510 1511 1514 1515 1516 1517 1517 1517 1517 1517 1518 1520 1522 1523 1523 1524 1524 1524 1524 1523 1522 1522 1522 1522 1522 1522 1522 1521 1521 1520 1520 1519 1518 1516 1515 1514 1514 1514 1515 1517 1517
1507 1509 1510 1512 1514 1515 1516 1517 1518 1518 1518 1518 1519 1520 1521 1522 1523 1524 1524 1524 1524 1523 1522 1522 1522 1522 1522 1522 1521 1521 1520 1519 1518 1518 1517 1516 1515 1514 1514 1514 1515 1516 1516
1507 1509 1511 1512 1514 1515 1516 1517 1518 1518 1518 1518 1519 1520 1521 1523 1524 1524 1524 1524 1524 1523 1522 1521 1521 1522 1522 1522 1522 1521 1520 1519 1518 1517 1517 1517 1517 1515 1515 1515 1515 1515 1515
1507 1509 1511 1512 1515 1516 1517 1517 1518 1518 1518 1518 1519 1521 1522 1523 1524 1525 1525 1525 1524 1524 1523 1522 1522 1521 1521 1521 1521 1520 1519 1518 1517 1516 1517 1517 1517 1516 1516 1516 1516 1515 1515
1506 1509 1511 1513 1515 1517 1517 1518 1518 1518 1518 1518 1519 1521 1522 1524 1525 1525 1526 1526 1525 1525 1524 1523 1523 1522 1522 1521 1521 1520 1519 1517 1517 1517 1517 1516 1517 1516 1516 1516 1515 1515 1515
1506 1509 1510 1512 1515 1517 1517 1518 1518 1518 1518 1519 1519 1520 1522 1524 1525 1526 1526 1526 1526 1526 1525 1524 1524 1523 1522 1522 1521 1520 1520 1519 1518 1519 1518 1517 1517 1515 1515 1515 1515 1514 1514
1507 1509 1509 1512 1515 1516 1517 1518 1518 1518 1519 1519 1520 1520 1522 1523 1525 1525 1526 1527 1527 1526 1526 1525 1524 1524 1523 1522 1521 1521 1520 1520 1519 1519 1518 1517 1516 1514 1514 1515 1515 1514 1514
1508 1509 1509 1511 1514 1516 1517 1518 1518 1519 1519 1519 1520 1521 1521 1522 1524 1525 1526 1527 1527 1527 1526 1525 1524 1524 1524 1523 1522 1521 1521 1520 1519 1518 1518 1517 1516 1514 1513 1514 1514 1514 1513
1508 1510 1510 1510 1513 1515 1517 1518 1518 1519 1519 1519 1520 1521 1522 1522 1523 1525 1526 1527 1527 1527 1527 1526 1524 1525 1524 1523 1522 1521 1520 1519 1518 1518 1517 1516 1514 1513 1512 1512 1513 1513 1511
1506 1509 1510 1511 1513 1515 1516 1517 1518 1518 1519 1520 1520 1521 1522 1523 1524 1525 1526 1527 1527 1527 1527 1526 1525 1525 1524 1522 1521 1520 1519 1518 1518 1517 1516 1515 1513 1512 1511 1510 1510 1510 1509
1504 1506 1508 1509 1511 1514 1515 1516 1517 1518 1519 1519 1520 1521 1522 1523 1523 1524 1525 1526 1526 1526 1526 1525 1525 1524 1523 1521 1520 1519 1518 1517 1517 1514 1513 1512 1511 1510 1509 1508 1507 1506 1506
1502 1503 1505 1507 1510 1512 1514 1515 1516 1517 1518 1519 1519 1520 1521 1522 1522 1523 1524 1526 1526 1526 1525 1525 1524 1523 1522 1521 1519 1518 1516 1515 1514 1512 1511 1509 1508 1507 1506 1505 1504 1503 1502
1501 1501 1503 1505 1507 1509 1511 1513 1514 1515 1516 1517 1518 1519 1519 1521 1522 1523 1524 1525 1526 1525 1525 1524 1524 1522 1520 1519 1517 1516 1513 1512 1511 1509 1507 1506 1504 1504 1503 1502 1501 1500 1499
1499 1499 1500 1502 1504 1505 1508 1510 1511 1512 1513 1514 1516 1517 1518 1519 1520 1522 1523 1524 1525 1525 1524 1523 1522 1520 1518 1516 1514 1513 1510 1508 1508 1506 1504 1502 1501 1500 1500 1499 1499 1498 1496
1495 1496 1497 1499 1500 1501 1503 1506 1508 1509 1510 1512 1513 1515 1516 1517 1518 1520 1521 1523 1524 1524 1523 1521 1520 1518 1516 1513 1511 1509 1506 1504 1504 1503 1502 1500 1499 1499 1498 1497 1496 1495 1494
1491 1492 1494 1495 1496 1497 1499 1501 1504 1506 1508 1510 1511 1512 1514 1516 1517 1518 1520 1521 1522 1522 1521 1519 1518 1515 1513 1510 1507 1504 1503 1502 1501 1501 1501 1499 1498 1497 1496 1495 1494 1492 1491
1487 1488 1489 1491 1492 1493 1495 1497 1500 1503 1505 1507 1509 1510 1511 1513 1515 1517 1518 1519 1520 1520 1519 1517 1515 1513 1510 1507 1504 1501 1500 1500 1499 1499 1499 1498 1496 1495 1493 1492 1491 1489 1487
1481 1483 1484 1486 1487 1489 1491 1493 1496 1498 1502 1505 1507 1508 1509 1511 1513 1515 1517 1518 1518 1518 1517 1515 1513 1511 1508 1505 1503 1500 1498 1497 1497 1497 1497 1495 1494 1492 1491 1490 1488 1486 1484
1475 1477 1478 1480 1482 1483 1486 1489 1492 1494 1498 1501 1503 1505 1507 1509 1511 1513 1515 1516 1516 1516 1515 1514 1512 1509 1506 1504 1501 1498 1496 1495 1495 1495 1495 1493 1491 1490 1489 1487 1485 1482 1480
1469 1470 1472 1474 1476 1478 1480 1484 1487 1490 1493 1497 1500 1502 1504 1506 1508 1511 1512 1514 1514 1514 1514 1512 1510 1507 1504 1502 1500 1497 1495 1494 1493 1493 1493 1492 1489 1487 1485 1483 1481 1478 1475
1462 1464 1466 1467 1469 1471 1473 1477 1480 1484 1488 1492 1496 1499 1501 1503 1506 1508 1510 1512 1513 1513 1512 1510 1507 1504 1501 1500 1498 1497 1495 1493 1492 1491 1491 1489 1486 1484 1483 1481 1478 1474 1471
1455 1457 1460 1461 1463 1465 1468 1472 1476 1480 1484 1488 1492 1495 1498 1500 1503 1506 1508 1510 1511 1511 1510 1508 1505 1502 1499 1498 1498 1496 1495 1495 1492 1490 1488 1486 1483 1481 1480 1477 1474 1471 1467
1446 1449 1453 1454 1456 1458 1462 1466 1470 1474 1479 1483 1487 1491 1495 1498 1501 1504 1506 1507 1508 1508 1507 1505 1503 1501 1499 1498 1497 1497 1496 1494 1491 1487 1485 1482 1480 1477 1474 1472 1468 1465 1461
1438 1441 1445 1447 1449 1452 1456 1460 1465 1469 1473 1479 1483 1487 1492 1496 1499 1502 1503 1505 1505 1505 1504 1503 1501 1500 1499 1497 1495 1493 1493 1491 1489 1484 1481 1478 1475 1471 1468 1465 1462 1459 1455
1430 1433 1437 1440 1443 1446 1450 1456 1463 1467 1471 1475 1480 1484 1489 1493 1497 1499 1501 1502 1502 1502 1501 1500 1499 1498 1496 1495 1494 1491 1489 1487 1486 1483 1477 1473 1470 1466 1462 1458 1454 1451 1448
1420 1424 1428 1433 1437 1441 1446 1452 1459 1463 1466 1471 1476 1481 1486 1490 1494 1496 1499 1500 1500 1499 1498 1497 1496 1495 1494 1492 1490 1488 1486 1485 1483 1479 1474 1468 1464 1460 1456 1451 1447 1445 1442